This demonstration page uses our WeatherBlox Daily Observations layout. Learn more.

Left ArrowRight Arrow

Hourly Observations for August 6, 2021

Temp ( °F °C ) Dew Point ( °F °C ) Humidity (%) Winds ( mph kmh ) Pressure ( in mb ) Visibility ( mi km ) Precip ( " mm )
12:53 am 00:53 Cloudy 70 21.1 45 7.2 41 41 NNW 6 9 29.93 1014 10 16 0.00 0.00
1:53 am 01:53 Clear 70 21.1 45 7.2 41 41 N 7 11 29.92 1013 10 16 0.00 0.00
2:53 am 02:53 Clear 69 20.6 44 6.7 41 41 N 5 7 29.92 1013 10 16 0.00 0.00
3:53 am 03:53 Mostly Cloudy 68 20 45 7.2 44 44 N 6 9 29.92 1013 10 16 0.00 0.00
4:53 am 04:53 Cloudy 67 19.4 46 7.8 47 47 NNW 5 7 29.92 1013 10 16 0.00 0.00
5:53 am 05:53 Cloudy 65 18.3 46 7.8 51 51 ENE 3 6 29.92 1013 10 16 0.00 0.00
6:53 am 06:53 Mostly Cloudy with Haze 66 18.9 46 7.8 49 49 Calm 29.93 1014 6 10 0.00 0.00
7:53 am 07:53 Mostly Cloudy with Haze 76 24.4 46 7.8 35 35 NNW 7 11 29.94 1014 6 10 0.00 0.00
8:53 am 08:53 Mostly Cloudy with Haze 79 26.1 48 8.9 34 34 NNW 5 7 29.95 1014 6 10 0.00 0.00
9:37 am 09:37 Mostly Cloudy with Haze 84 28.9 44 6.7 25 25 NNW 9 15 29.93 1014 3 4 0.00 0.00
9:53 am 09:53 Mostly Cloudy with Haze 84 28.9 44 6.7 25 25 N 12 19 29.94 1014 3 4 0.00 0.00
10:53 am 10:53 Cloudy with Haze 88 31.1 43 6.1 21 21 NNW 9 15 29.93 1013 2 3 0.00 0.00
11:38 am 11:38 Cloudy with Haze 92 33.3 42 5.6 18 18 NNW 13 20 29.91 1013 3 5 0.00 0.00
11:45 am 11:45 Cloudy with Haze 93 33.9 41 5 16 16 N 10 17 29.90 1013 2 3 0.00 0.00
11:53 am 11:53 Cloudy with Haze 94 34.4 40 4.4 15 15 NNE 14 22 29.91 1013 2 3 0.00 0.00
11:55 am 11:55 Cloudy with Haze 94 34.4 39 3.9 15 15 N 9 15 29.90 1013 4 6 0.00 0.00
12:19 pm 12:19 Cloudy with Haze 95 35 40 4.4 15 15 NNW 9 15 29.89 1012 4 6 0.00 0.00
12:53 pm 12:53 Cloudy with Haze 96 35.6 37 2.8 13 13 VRB 5 7 29.90 1012 4 6 0.00 0.00
1:02 pm 13:02 Cloudy with Haze 95 35 37 2.8 13 13 VRB 3 6 29.87 1012 4 6 0.00 0.00
1:53 pm 13:53 Cloudy with Haze 97 36.1 34 1.1 11 11 W 6 9 29.87 1012 4 6 0.00 0.00
2:07 pm 14:07 Cloudy with Haze 98 36.7 31 -0.6 9 9 VRB 7 11 29.85 1011 5 8 0.00 0.00
2:53 pm 14:53 Cloudy with Haze 100 37.8 30 -1.1 8 8 NNE 5 7 29.85 1011 5 8 0.00 0.00
3:53 pm 15:53 Cloudy with Haze 100 37.8 27 -2.8 7 7 WNW 3 6 29.82 1010 5 8 0.00 0.00
4:53 pm 16:53 Mostly Cloudy with Haze 100 37.8 26 -3.3 7 7 Calm 29.80 1009 6 10 0.00 0.00
5:53 pm 17:53 Partly Cloudy with Smoke 103 39.4 24 -4.4 6 6 NNW 3 6 29.78 1008 7 11 0.00 0.00
6:53 pm 18:53 Sunny with Smoke 100 37.8 30 -1.1 8 8 W 3 6 29.77 1008 7 11 0.00 0.00
7:53 pm 19:53 Cloudy with Haze 93 33.9 35 1.7 13 13 W 5 7 29.77 1008 6 10 0.00 0.00
8:19 pm 20:19 Cloudy with Haze 90 32.2 37 2.8 15 15 WSW 5 7 29.77 1008 2 3 0.00 0.00
8:36 pm 20:36 Cloudy with Haze 90 32.2 39 3.9 17 17 SW 5 7 29.77 1008 3 5 0.00 0.00
8:53 pm 20:53 Cloudy with Haze 88 31.1 40 4.4 18 18 WSW 3 6 29.78 1009 3 5 0.00 0.00
9:00 pm 21:00 Cloudy with Haze 87 30.6 40 4.4 19 19 W 3 6 29.77 1008 2 3 0.00 0.00
9:15 pm 21:15 Cloudy with Haze 85 29.4 40 4.4 20 20 Calm 29.78 1009 2 2 0.00 0.00
9:51 pm 21:51 Cloudy with Haze 84 29 41 5 22 22 WSW 3 6 29.79 1009 1 2 0.00 0.00
9:53 pm 21:53 Mostly Cloudy with Haze 84 28.9 42 5.6 23 23 SW 3 6 29.80 1009 1 2 0.00 0.00
10:07 pm 22:07 Cloudy with Haze 82 27.8 42 5.6 24 24 S 5 7 29.79 1009 2 2 0.00 0.00
10:37 pm 22:37 Cloudy with Haze 80 26.7 39 3.9 23 23 SSE 3 6 29.81 1009 2 3 0.00 0.00
10:53 pm 22:53 Cloudy with Haze 81 27.2 39 3.9 22 22 SSE 8 13 29.81 1010 4 6 0.00 0.00
11:38 pm 23:38 Cloudy with Haze 82 27.8 45 7.2 27 27 S 5 7 29.81 1010 4 6 0.00 0.00
11:53 pm 23:53 Cloudy with Haze 79 26.1 47 8.3 32 32 Calm 29.83 1010 4 6 0.00 0.00

Powered by AerisWeather